����������;��������(kVARh)
2016-02-29 00:00;28,1
2016-02-29 00:15;29,8
2016-02-29 00:30;32,15
2016-02-29 00:45;31,65
2016-02-29 01:00;7,8
2016-02-29 01:15;15,6
2016-02-29 01:30;15,05
2016-02-29 01:45;7,95
2016-02-29 02:00;6,45
2016-02-29 02:15;5
2016-02-29 02:30;3,95
2016-02-29 02:45;3,9
2016-02-29 03:00;4,25
2016-02-29 03:15;3
2016-02-29 03:30;5,25
2016-02-29 03:45;4,8
2016-02-29 04:00;6,1
2016-02-29 04:15;4
2016-02-29 04:30;4
2016-02-29 04:45;4,35
2016-02-29 05:00;3,55
2016-02-29 05:15;4,1
2016-02-29 05:30;5,1
2016-02-29 05:45;3,9
2016-02-29 06:00;3,5
2016-02-29 06:15;4,25
2016-02-29 06:30;3,8
2016-02-29 06:45;4,3
2016-02-29 07:00;6,35
2016-02-29 07:15;8,95
2016-02-29 07:30;3,55
2016-02-29 07:45;10,85
2016-02-29 08:00;8,3
2016-02-29 08:15;11,3
2016-02-29 08:30;19,75
2016-02-29 08:45;26,2
2016-02-29 09:00;38,35
2016-02-29 09:15;40,85
2016-02-29 09:30;38,55
2016-02-29 09:45;38,45
2016-02-29 10:00;43,1
2016-02-29 10:15;40
2016-02-29 10:30;39,45
2016-02-29 10:45;39,65
2016-02-29 11:00;37,9
2016-02-29 11:15;32,7
2016-02-29 11:30;34
2016-02-29 11:45;33,8
2016-02-29 12:00;35,75
2016-02-29 12:15;35,65
2016-02-29 12:30;39,55
2016-02-29 12:45;34,35
2016-02-29 13:00;32,2
2016-02-29 13:15;39,8
2016-02-29 13:30;39,95
2016-02-29 13:45;36,65
2016-02-29 14:00;39,1
2016-02-29 14:15;36,85
2016-02-29 14:30;35,9
2016-02-29 14:45;38,95
2016-02-29 15:00;46,9
2016-02-29 15:15;43,15
2016-02-29 15:30;35,75
2016-02-29 15:45;38,55
2016-02-29 16:00;31,5
2016-02-29 16:15;30,65
2016-02-29 16:30;35,25
2016-02-29 16:45;32,9
2016-02-29 17:00;32,05
2016-02-29 17:15;28,5
2016-02-29 17:30;32,15
2016-02-29 17:45;29,85
2016-02-29 18:00;29,55
2016-02-29 18:15;29,4
2016-02-29 18:30;25,75
2016-02-29 18:45;24
2016-02-29 19:00;22,2
2016-02-29 19:15;17,25
2016-02-29 19:30;14,4
2016-02-29 19:45;8,95
2016-02-29 20:00;14,1
2016-02-29 20:15;14,7
2016-02-29 20:30;12,7
2016-02-29 20:45;15,9
2016-02-29 21:00;14
2016-02-29 21:15;15,3
2016-02-29 21:30;18,3
2016-02-29 21:45;16,3
2016-02-29 22:00;10,7
2016-02-29 22:15;10,75
2016-02-29 22:30;7,95
2016-02-29 22:45;9,4
2016-02-29 23:00;11,2
2016-02-29 23:15;8,6
2016-02-29 23:30;9,55
2016-02-29 23:45;11
2016-03-01 00:00;4,4
2016-03-01 00:15;1,05
2016-03-01 00:30;1,05
2016-03-01 00:45;1,95
2016-03-01 01:00;2,05
2016-03-01 01:15;0,65
2016-03-01 01:30;1,65
2016-03-01 01:45;17,25
2016-03-01 02:00;15,7
2016-03-01 02:15;8,45
2016-03-01 02:30;6,1
2016-03-01 02:45;4
2016-03-01 03:00;3,15
2016-03-01 03:15;2,8
2016-03-01 03:30;2,95
2016-03-01 03:45;3,55
2016-03-01 04:00;2,55
2016-03-01 04:15;2,35
2016-03-01 04:30;2,5
2016-03-01 04:45;1,9
2016-03-01 05:00;2
2016-03-01 05:15;2,25
2016-03-01 05:30;3,5
2016-03-01 05:45;2,75
2016-03-01 06:00;3,65
2016-03-01 06:15;4,2
2016-03-01 06:30;4,2
2016-03-01 06:45;5
2016-03-01 07:00;4,1
2016-03-01 07:15;7,15
2016-03-01 07:30;4,2
2016-03-01 07:45;5,5
2016-03-01 08:00;19,2
2016-03-01 08:15;21,2
2016-03-01 08:30;6,6
2016-03-01 08:45;7,4
2016-03-01 09:00;14,05
2016-03-01 09:15;23,35
2016-03-01 09:30;43,4
2016-03-01 09:45;48,3
2016-03-01 10:00;46,9
2016-03-01 10:15;45,3
2016-03-01 10:30;40,9
2016-03-01 10:45;42,8
2016-03-01 11:00;41
2016-03-01 11:15;38,35
2016-03-01 11:30;39,3
2016-03-01 11:45;37,85
2016-03-01 12:00;46,4
2016-03-01 12:15;48,05
2016-03-01 12:30;46,9
2016-03-01 12:45;40,1
2016-03-01 13:00;48
2016-03-01 13:15;40,25
2016-03-01 13:30;41,4
2016-03-01 13:45;29,1
2016-03-01 14:00;38,65
2016-03-01 14:15;38,35
2016-03-01 14:30;35,2
2016-03-01 14:45;40,35
2016-03-01 15:00;39,75
2016-03-01 15:15;43,95
2016-03-01 15:30;27,95
2016-03-01 15:45;31,3
2016-03-01 16:00;27,95
2016-03-01 16:15;24,85
2016-03-01 16:30;20,8
2016-03-01 16:45;23,05
2016-03-01 17:00;17,65
2016-03-01 17:15;19,75
2016-03-01 17:30;21,6
2016-03-01 17:45;21,75
2016-03-01 18:00;24,35
2016-03-01 18:15;25,9
2016-03-01 18:30;23,75
2016-03-01 18:45;20,95
2016-03-01 19:00;18,5
2016-03-01 19:15;16,15
2016-03-01 19:30;14
2016-03-01 19:45;14,6
2016-03-01 20:00;8,55
2016-03-01 20:15;7,55
2016-03-01 20:30;2,55
2016-03-01 20:45;1,95
2016-03-01 21:00;1,5
2016-03-01 21:15;1,75
2016-03-01 21:30;2,35
2016-03-01 21:45;1,65
2016-03-01 22:00;1,35
2016-03-01 22:15;2,15
2016-03-01 22:30;5,45
2016-03-01 22:45;6,9
2016-03-01 23:00;4,3
2016-03-01 23:15;0,55
2016-03-01 23:30;0,1
2016-03-01 23:45;0,2
2016-03-02 00:00;0,25
2016-03-02 00:15;0,05
2016-03-02 00:30;0,1
2016-03-02 00:45;0,35
2016-03-02 01:00;0
2016-03-02 01:15;0,25
2016-03-02 01:30;0,2
2016-03-02 01:45;0,2
2016-03-02 02:00;8,6
2016-03-02 02:15;11,1
2016-03-02 02:30;4,9
2016-03-02 02:45;2,35
2016-03-02 03:00;2,4
2016-03-02 03:15;1,95
2016-03-02 03:30;2,35
2016-03-02 03:45;1,7
2016-03-02 04:00;0,7
2016-03-02 04:15;1,5
2016-03-02 04:30;2,5
2016-03-02 04:45;2,3
2016-03-02 05:00;1,7
2016-03-02 05:15;2
2016-03-02 05:30;1,45
2016-03-02 05:45;0,25
2016-03-02 06:00;1,9
2016-03-02 06:15;5,1
2016-03-02 06:30;10,45
2016-03-02 06:45;11,55
2016-03-02 07:00;12,4
2016-03-02 07:15;14,65
2016-03-02 07:30;11,05
2016-03-02 07:45;22,85
2016-03-02 08:00;32,6
2016-03-02 08:15;24,9
2016-03-02 08:30;22,05
2016-03-02 08:45;19,3
2016-03-02 09:00;25,9
2016-03-02 09:15;35,6
2016-03-02 09:30;23
2016-03-02 09:45;33,75
2016-03-02 10:00;26,1
2016-03-02 10:15;31,45
2016-03-02 10:30;26,6
2016-03-02 10:45;36,65
2016-03-02 11:00;32,6
2016-03-02 11:15;31,3
2016-03-02 11:30;22,85
2016-03-02 11:45;31,05
2016-03-02 12:00;21,7
2016-03-02 12:15;31,85
2016-03-02 12:30;28,85
2016-03-02 12:45;32,55
2016-03-02 13:00;28,3
2016-03-02 13:15;39,2
2016-03-02 13:30;37,35
2016-03-02 13:45;40,05
2016-03-02 14:00;39,15
2016-03-02 14:15;39,65
2016-03-02 14:30;34,9
2016-03-02 14:45;39,4
2016-03-02 15:00;37,5
2016-03-02 15:15;34,2
2016-03-02 15:30;31,75
2016-03-02 15:45;26,5
2016-03-02 16:00;32,8
2016-03-02 16:15;26,15
2016-03-02 16:30;26,8
2016-03-02 16:45;23,5
2016-03-02 17:00;22,65
2016-03-02 17:15;21,4
2016-03-02 17:30;15,85
2016-03-02 17:45;20,55
2016-03-02 18:00;22,45
2016-03-02 18:15;18,25
2016-03-02 18:30;15,95
2016-03-02 18:45;15,1
2016-03-02 19:00;17,1
2016-03-02 19:15;15,75
2016-03-02 19:30;15,15
2016-03-02 19:45;15,3
2016-03-02 20:00;15,75
2016-03-02 20:15;17,65
2016-03-02 20:30;13,85
2016-03-02 20:45;10,25
2016-03-02 21:00;9,35
2016-03-02 21:15;4,55
2016-03-02 21:30;4,2
2016-03-02 21:45;5,15
2016-03-02 22:00;0,7
2016-03-02 22:15;1,35
2016-03-02 22:30;0,7
2016-03-02 22:45;0,25
2016-03-02 23:00;0,05
2016-03-02 23:15;0,7
2016-03-02 23:30;0,85
2016-03-02 23:45;0
2016-03-03 00:00;0,05
2016-03-03 00:15;0,5
2016-03-03 00:30;0,2
2016-03-03 00:45;0
2016-03-03 01:00;0
2016-03-03 01:15;0
2016-03-03 01:30;0
2016-03-03 01:45;0,1
2016-03-03 02:00;0
2016-03-03 02:15;0
2016-03-03 02:30;0
2016-03-03 02:45;10,85
2016-03-03 03:00;9,15
2016-03-03 03:15;3,1
2016-03-03 03:30;1,6
2016-03-03 03:45;1,65
2016-03-03 04:00;2,15
2016-03-03 04:15;0,6
2016-03-03 04:30;1,5
2016-03-03 04:45;1,4
2016-03-03 05:00;0,5
2016-03-03 05:15;0,95
2016-03-03 05:30;1,85
2016-03-03 05:45;0,8
2016-03-03 06:00;2,5
2016-03-03 06:15;1,85
2016-03-03 06:30;1,15
2016-03-03 06:45;2,25
2016-03-03 07:00;7,45
2016-03-03 07:15;13,5
2016-03-03 07:30;10,3
2016-03-03 07:45;18,6
2016-03-03 08:00;37,3
2016-03-03 08:15;33,1
2016-03-03 08:30;32,4
2016-03-03 08:45;32,3
2016-03-03 09:00;36,65
2016-03-03 09:15;40,4
2016-03-03 09:30;38,55
2016-03-03 09:45;36,25
2016-03-03 10:00;36,25
2016-03-03 10:15;36,5
2016-03-03 10:30;35,8
2016-03-03 10:45;34,35
2016-03-03 11:00;32,9
2016-03-03 11:15;31,25
2016-03-03 11:30;25,65
2016-03-03 11:45;30,3
2016-03-03 12:00;29,45
2016-03-03 12:15;33,55
2016-03-03 12:30;34,7
2016-03-03 12:45;35
2016-03-03 13:00;37,5
2016-03-03 13:15;44,1
2016-03-03 13:30;46,7
2016-03-03 13:45;39,75
2016-03-03 14:00;36,5
2016-03-03 14:15;36,1
2016-03-03 14:30;31,95
2016-03-03 14:45;33,6
2016-03-03 15:00;33,4
2016-03-03 15:15;30,55
2016-03-03 15:30;32,7
2016-03-03 15:45;30,85
2016-03-03 16:00;28,9
2016-03-03 16:15;27,6
2016-03-03 16:30;28,8
2016-03-03 16:45;27,15
2016-03-03 17:00;23,7
2016-03-03 17:15;23,15
2016-03-03 17:30;22,55
2016-03-03 17:45;26,25
2016-03-03 18:00;21,45
2016-03-03 18:15;16,95
2016-03-03 18:30;21,5
2016-03-03 18:45;15
2016-03-03 19:00;14,9
2016-03-03 19:15;10,1
2016-03-03 19:30;13,15
2016-03-03 19:45;12,05
2016-03-03 20:00;8,55
2016-03-03 20:15;8,2
2016-03-03 20:30;9,2
2016-03-03 20:45;8,25
2016-03-03 21:00;8,8
2016-03-03 21:15;11,95
2016-03-03 21:30;9,75
2016-03-03 21:45;11,9
2016-03-03 22:00;14,35
2016-03-03 22:15;16,05
2016-03-03 22:30;15,9
2016-03-03 22:45;14,75
2016-03-03 23:00;15,25
2016-03-03 23:15;12,3
2016-03-03 23:30;8,6
2016-03-03 23:45;9,95
2016-03-04 00:00;14,3
2016-03-04 00:15;13
2016-03-04 00:30;5,35
2016-03-04 00:45;0,85
2016-03-04 01:00;1,25
2016-03-04 01:15;1,2
2016-03-04 01:30;1,25
2016-03-04 01:45;0,5
2016-03-04 02:00;0,05
2016-03-04 02:15;0
2016-03-04 02:30;0,05
2016-03-04 02:45;0
2016-03-04 03:00;0,05
2016-03-04 03:15;3,8
2016-03-04 03:30;14,05
2016-03-04 03:45;9,6
2016-03-04 04:00;5,05
2016-03-04 04:15;2,05
2016-03-04 04:30;2,35
2016-03-04 04:45;1,3
2016-03-04 05:00;1,1
2016-03-04 05:15;1,2
2016-03-04 05:30;1,15
2016-03-04 05:45;1,8
2016-03-04 06:00;3,05
2016-03-04 06:15;1,1
2016-03-04 06:30;1,65
2016-03-04 06:45;2,4
2016-03-04 07:00;2,95
2016-03-04 07:15;4,4
2016-03-04 07:30;13,05
2016-03-04 07:45;15
2016-03-04 08:00;17,3
2016-03-04 08:15;22,9
2016-03-04 08:30;21,85
2016-03-04 08:45;22,15
2016-03-04 09:00;28,9
2016-03-04 09:15;34,1
2016-03-04 09:30;36,5
2016-03-04 09:45;41,5
2016-03-04 10:00;42,75
2016-03-04 10:15;41,25
2016-03-04 10:30;40,7
2016-03-04 10:45;43,1
2016-03-04 11:00;48,05
2016-03-04 11:15;52,75
2016-03-04 11:30;52,6
2016-03-04 11:45;49,85
2016-03-04 12:00;51,35
2016-03-04 12:15;49,75
2016-03-04 12:30;50,75
2016-03-04 12:45;47,2
2016-03-04 13:00;46,35
2016-03-04 13:15;47,2
2016-03-04 13:30;43,85
2016-03-04 13:45;48,3
2016-03-04 14:00;48,4
2016-03-04 14:15;50,2
2016-03-04 14:30;48,75
2016-03-04 14:45;47,7
2016-03-04 15:00;48,3
2016-03-04 15:15;45
2016-03-04 15:30;41,75
2016-03-04 15:45;42,5
2016-03-04 16:00;41,8
2016-03-04 16:15;35,5
2016-03-04 16:30;37,3
2016-03-04 16:45;35,3
2016-03-04 17:00;28,3
2016-03-04 17:15;28,8
2016-03-04 17:30;24,85
2016-03-04 17:45;24,85
2016-03-04 18:00;29,15
2016-03-04 18:15;25,7
2016-03-04 18:30;24,45
2016-03-04 18:45;19,85
2016-03-04 19:00;21,85
2016-03-04 19:15;19,2
2016-03-04 19:30;17,5
2016-03-04 19:45;15,4
2016-03-04 20:00;11,95
2016-03-04 20:15;11,25
2016-03-04 20:30;15
2016-03-04 20:45;13,4
2016-03-04 21:00;13,7
2016-03-04 21:15;14,1
2016-03-04 21:30;7,9
2016-03-04 21:45;9,6
2016-03-04 22:00;3,4
2016-03-04 22:15;2,2
2016-03-04 22:30;1,1
2016-03-04 22:45;0,5
2016-03-04 23:00;0,6
2016-03-04 23:15;0,4
2016-03-04 23:30;1
2016-03-04 23:45;1,1
2016-03-05 00:00;2,45
2016-03-05 00:15;0
2016-03-05 00:30;0,05
2016-03-05 00:45;0,1
2016-03-05 01:00;0
2016-03-05 01:15;0
2016-03-05 01:30;0,2
2016-03-05 01:45;0,35
2016-03-05 02:00;0,05
2016-03-05 02:15;0
2016-03-05 02:30;0
2016-03-05 02:45;0,05
2016-03-05 03:00;0
2016-03-05 03:15;0
2016-03-05 03:30;0
2016-03-05 03:45;0
2016-03-05 04:00;0,05
2016-03-05 04:15;0
2016-03-05 04:30;0,4
2016-03-05 04:45;0
2016-03-05 05:00;0
2016-03-05 05:15;0
2016-03-05 05:30;0
2016-03-05 05:45;0
2016-03-05 06:00;0
2016-03-05 06:15;0
2016-03-05 06:30;0
2016-03-05 06:45;0
2016-03-05 07:00;0,05
2016-03-05 07:15;0,1
2016-03-05 07:30;0,05
2016-03-05 07:45;0,15
2016-03-05 08:00;0,05
2016-03-05 08:15;0
2016-03-05 08:30;0,1
2016-03-05 08:45;0,6
2016-03-05 09:00;0,45
2016-03-05 09:15;0,1
2016-03-05 09:30;0,85
2016-03-05 09:45;0
2016-03-05 10:00;0
2016-03-05 10:15;0
2016-03-05 10:30;0
2016-03-05 10:45;0
2016-03-05 11:00;0
2016-03-05 11:15;0,5
2016-03-05 11:30;0,7
2016-03-05 11:45;3,8
2016-03-05 12:00;5,85
2016-03-05 12:15;6,35
2016-03-05 12:30;6,55
2016-03-05 12:45;3,4
2016-03-05 13:00;3,05
2016-03-05 13:15;2,95
2016-03-05 13:30;4,65
2016-03-05 13:45;3,6
2016-03-05 14:00;5,4
2016-03-05 14:15;6,3
2016-03-05 14:30;1
2016-03-05 14:45;1,7
2016-03-05 15:00;1,65
2016-03-05 15:15;1,9
2016-03-05 15:30;3,5
2016-03-05 15:45;3,75
2016-03-05 16:00;3,4
2016-03-05 16:15;3,55
2016-03-05 16:30;3,35
2016-03-05 16:45;4,9
2016-03-05 17:00;4,5
2016-03-05 17:15;2,85
2016-03-05 17:30;2,45
2016-03-05 17:45;2,4
2016-03-05 18:00;2,05
2016-03-05 18:15;3,35
2016-03-05 18:30;2,15
2016-03-05 18:45;0,5
2016-03-05 19:00;2,55
2016-03-05 19:15;3
2016-03-05 19:30;1,9
2016-03-05 19:45;2,55
2016-03-05 20:00;4,15
2016-03-05 20:15;3,5
2016-03-05 20:30;3,6
2016-03-05 20:45;4,85
2016-03-05 21:00;2,85
2016-03-05 21:15;1,2
2016-03-05 21:30;1,2
2016-03-05 21:45;1
2016-03-05 22:00;0,8
2016-03-05 22:15;1,15
2016-03-05 22:30;0,6
2016-03-05 22:45;0,75
2016-03-05 23:00;0,95
2016-03-05 23:15;1,2
2016-03-05 23:30;2,05
2016-03-05 23:45;1,95
2016-03-06 00:00;1,5
2016-03-06 00:15;0
2016-03-06 00:30;0
2016-03-06 00:45;0
2016-03-06 01:00;0
2016-03-06 01:15;0
2016-03-06 01:30;0
2016-03-06 01:45;0
2016-03-06 02:00;0
2016-03-06 02:15;0,05
2016-03-06 02:30;0
2016-03-06 02:45;0
2016-03-06 03:00;0,1
2016-03-06 03:15;0
2016-03-06 03:30;0,05
2016-03-06 03:45;0,2
2016-03-06 04:00;0,1
2016-03-06 04:15;0
2016-03-06 04:30;0
2016-03-06 04:45;0,15
2016-03-06 05:00;0,05
2016-03-06 05:15;0,05
2016-03-06 05:30;0
2016-03-06 05:45;0
2016-03-06 06:00;0
2016-03-06 06:15;0,15
2016-03-06 06:30;0,1
2016-03-06 06:45;0,05
2016-03-06 07:00;0,6
2016-03-06 07:15;0,45
2016-03-06 07:30;0,55
2016-03-06 07:45;1,9
2016-03-06 08:00;1,5
2016-03-06 08:15;1,55
2016-03-06 08:30;1,05
2016-03-06 08:45;0,8
2016-03-06 09:00;0,8
2016-03-06 09:15;1
2016-03-06 09:30;0,05
2016-03-06 09:45;0,45
2016-03-06 10:00;0
2016-03-06 10:15;0
2016-03-06 10:30;0
2016-03-06 10:45;0,15
2016-03-06 11:00;0,35
2016-03-06 11:15;0,25
2016-03-06 11:30;0,15
2016-03-06 11:45;0,55
2016-03-06 12:00;0,1
2016-03-06 12:15;0
2016-03-06 12:30;0,1
2016-03-06 12:45;0,35
2016-03-06 13:00;0,7
2016-03-06 13:15;0,6
2016-03-06 13:30;0,55
2016-03-06 13:45;0,95
2016-03-06 14:00;0,55
2016-03-06 14:15;0,65
2016-03-06 14:30;1,2
2016-03-06 14:45;1
2016-03-06 15:00;1,2
2016-03-06 15:15;1,4
2016-03-06 15:30;2,05
2016-03-06 15:45;1,1
2016-03-06 16:00;1,05
2016-03-06 16:15;1,1
2016-03-06 16:30;1,35
2016-03-06 16:45;1,9
2016-03-06 17:00;1,15
2016-03-06 17:15;1,35
2016-03-06 17:30;0,55
2016-03-06 17:45;2,45
2016-03-06 18:00;1,25
2016-03-06 18:15;0,9
2016-03-06 18:30;1,15
2016-03-06 18:45;2,55
2016-03-06 19:00;4,2
2016-03-06 19:15;4,55
2016-03-06 19:30;3,55
2016-03-06 19:45;2,45
2016-03-06 20:00;0,85
2016-03-06 20:15;0,4
2016-03-06 20:30;0,15
2016-03-06 20:45;0,15
2016-03-06 21:00;0
2016-03-06 21:15;0,25
2016-03-06 21:30;0,2
2016-03-06 21:45;0,15
2016-03-06 22:00;0,1
2016-03-06 22:15;0,1
2016-03-06 22:30;0,05
2016-03-06 22:45;0,75
2016-03-06 23:00;0,85
2016-03-06 23:15;1,7
2016-03-06 23:30;2,15
2016-03-06 23:45;4,9

